User: anonymous   Login
Location: Long Point Provincial Park
(42.5794°N, 80.4103°W)
Time: 08:20:20
(UTC-05:00)
Language:

Iridium 19 - Orbit

View from above orbital plane
View from above orbital plane
View from above satellite
View from above satellite

Ground track
Ground track

The orbit data is extracted from the following two-line orbital elements,

1 24965U 97056A   17326.35735519  .00000226  00000-0  73621-4 0  9993
2 24965  86.3979 252.5477 0002183  80.4020 279.7422 14.34218818 55227
Epoch (UTC): 22 November 2017 08:34:35
Eccentricity: 0.0002183
inclination: 86.3979°
perigee height: 776 km
apogee height: 779 km
right ascension of ascending node: 252.5477°
argument of perigee: 80.4020°
revolutions per day: 14.34218818
mean anomaly at epoch: 279.7422°
orbit number at epoch: 5522

The dashed part of the orbit path shows where the satellite is in the earth's shadow,  

DLR